AirNav   Pilot Hours Calculator
 
 633 users online  

9NR7 Triple F Airpark
Salemburg, North Carolina, USA

GOING TO SALEMBURG?


FAA INFORMATION EFFECTIVE 07 OCTOBER 2021

Location

FAA Identifier: 9NR7
Lat/Long: 35-01-06.0000N 078-33-57.0000W
35-01.100000N 078-33.950000W
35.0183333,-78.5658333
(estimated)
Elevation: 148 ft. / 45 m (estimated)
From city: 4 miles W of SALEMBURG, NC
Time zone: UTC -4 (UTC -5 during Standard Time)
Zip code: 28318

Airport Operations

Airport use: Private use. Permission required prior to landing
Activation date: 10/2008
Control tower: no
ARTCC: WASHINGTON CENTER
FSS: RALEIGH FLIGHT SERVICE STATION
Attendance: UNATNDD
Wind indicator: yes
Segmented circle: no

Airport Communications

WX AWOS-3 at CTZ (10 nm E): 119.125 (910-592-7488)
WX ASOS at FAY (16 nm W): 121.25 (910-484-1546)

Nearby radio navigation aids

VOR radial/distance  VOR name  Freq  Var
FAYr087/15.3FAYETTEVILLE VOR/DME108.8004W

 
NDB name  Hdg/Dist  Freq  Var  ID
CLINTON294/10.441209WCTZ -.-. - --..
FORT BRAGG128/14.139307WFGP ..-. --. .--.
POPE130/22.833807WPOB .--. --- -...
HARNETT176/25.441708WHQT .... --.- -

Airport Services

Runway Information

Runway 9/27

Dimensions: 2200 x 70 ft. / 671 x 21 m
Surface: turf
RUNWAY 9  RUNWAY 27
Traffic pattern: leftleft
Obstructions: 50 ft. trees, 200 ft. from runwaynone

Airport Ownership and Management from official FAA records

Ownership: Privately-owned
Owner: M. D. FAIRCLOTH
3455 AUTRYVILLE RD.
AUTRYVILLE, NC 28318
Phone 910-531-3826
Manager: FREDDIE HERRING
760 MURPHY RD.
CLINTON, NC 28328
Phone 910-990-6324

Airport Operational Statistics

Aircraft based on the field: 1
Single engine airplanes: 1
    

Additional Remarks

FOR CD CTC WASHINGTON ARTCC AT 703-771-3587.

Instrument Procedures

There are no published instrument procedures at 9NR7.

Some nearby airports with instrument procedures:

KCTZ - Clinton-Sampson County Airport (10 nm E)
KFAY - Fayetteville Regional Airport/Grannis Field (16 nm W)
KFBG - Simmons Army Airfield (19 nm W)
KHRJ - Harnett Regional Jetport Airport (23 nm N)
KPOB - Pope Army Airfield (24 nm NW)
 
Loc | Ops | Rwys | IFR | FBO | Links
Com | Nav | Svcs | Stats | Notes
Aerial photo
No photo
 
Sectional chart

 
Airport distance calculator
Flying to Triple F Airpark? Find the distance to fly.

From to 9NR7

Sunrise and sunset
Times for 19-Oct-2021
 Local
(UTC-4)
 Zulu
(UTC)
Morning civil twilight06:5910:59
Sunrise07:2511:25
Sunset18:3422:34
Evening civil twilight19:0023:00

Current date and time
Zulu (UTC)  19-Oct-2021 11:03:32
Local (UTC-4)  19-Oct-2021 07:03:32
 
METAR
KCTZ 
10nm E 
191055Z AUTO 00000KT 10SM CLR 06/06 A3020 RMK AO2 T00560056
KFAY 
16nm W 
191053Z 27004KT 10SM CLR 08/06 A3019 RMK AO2 SLP217 T00780056
KFBG 
18nm W 
191056Z AUTO 00000KT 10SM CLR 08/08 A3018 RMK AO2 SLP223 T00770076 $
TAF
KFAY 
16nm W 
190524Z 1906/2006 25004KT P6SM SKC FM191500 26005KT P6SM SKC
KFBG 
18nm W 
190900Z 1909/2015 VRB06KT 9999 SKC QNH3010INS TX22/1920Z TN07/1911Z
NOTAMs
Click for the latest NOTAMs
NOTAMs are issued by the DoD/FAA and will open in a separate window not controlled by AirNav.

 

 
 

Would you like to see your business listed on this page?

 If your business provides an interesting product or service to pilots, flight crews, aircraft, or users of the Triple F Airpark, you should consider listing it here.  To start the listing process, click on the button below
 
Add a business
 

Other Pages about Triple F Airpark

Update a link
 
Copyright © AirNav, LLC. All rights reserved. Privacy Policy  Contact